[[{"header":{"parameterUnit":"m.s-1","parameterCategory":1,"la1":30.2991,"la2":30.254,"lo1":-89.0895,"lo2":-89.0444,"dy":0.0017,"dx":0.0017,"nx":28,"ny":28,"refTime":"2024-08-02T21:00:00:Z","depth":0,"parameterNumber":2,"parameterNumberName":"U-component_of_WINDS"},"data":[0,0,0,0,0,0,0,0,0,0,0,0,0,0,0,0,0,0,0,0,0,0,0,0,0,0,0,0,0,0,0,0,0,0,0,0,0,0,0,0,0,0,0,0,0,0,0,0,0,0,0,0,0,0,0,0,0,0,1.9541,1.9542,0,1.9612,1.9613,1.9614,1.9616,1.9615,1.9614,1.9613,1.9689,1.9692,1.9695,0,0,0,0,0,0,0,0,0,0,0,0,0,1.9412,1.9414,1.9541,1.9542,1.9543,1.9612,1.9613,1.9614,1.9616,1.9615,1.9614,1.9613,1.9688,1.9692,1.9695,0,0,0,0,0,0,0,0,0,0,0,0,0,1.9474,1.9415,1.9541,1.9552,1.9554,1.9612,1.9613,1.9614,1.9616,1.9615,1.9614,1.9612,1.9687,1.9691,1.9695,1.9748,0,0,1.9708,1.971,0,0,0,0,0,0,0,0,1.947,1.9479,1.955,1.9551,1.9553,1.9604,1.9595,1.9659,1.9617,1.9593,1.9613,1.9612,1.9662,1.9668,1.9685,1.9752,1.9755,1.9709,1.9711,1.9713,1.9714,0,0,0,0,0,0,0,1.9466,1.9476,1.9569,1.9551,1.9553,1.9555,1.9562,1.9607,1.9634,1.9595,1.9595,1.9603,1.9663,1.968,1.9686,1.9756,1.9709,1.9712,1.9715,1.9717,1.9873,1.9875,0,0,0,0,0,0,1.9459,1.9472,1.9567,1.9571,1.9508,1.9558,1.9567,1.9589,1.9633,1.9639,1.9604,1.9603,1.9674,1.9681,1.9689,1.9756,1.9713,1.9717,1.972,1.9872,1.9874,1.9875,0,0,0,0,0,0,1.9456,1.9467,1.9564,1.9522,1.9534,1.9562,1.9587,1.9591,1.9609,1.9641,1.9646,1.9617,1.9673,1.9683,1.9734,1.9758,1.9719,1.9723,1.987,1.9872,1.9874,1.9888,0,0,0,0,0,0,1.9452,1.9466,1.9485,1.9522,1.9537,1.9607,1.9589,1.9593,1.9616,1.9615,1.9654,1.9659,1.9673,1.9727,1.9738,1.9764,1.9726,1.9868,1.9871,1.9874,1.9886,1.9891,1.9895,0,0,0,0,0,1.9448,1.9487,1.9486,1.9498,1.9561,1.9608,1.9616,1.963,1.9617,1.9638,1.9659,1.9658,1.9754,1.9733,1.9745,1.9772,1.9866,1.987,1.9873,1.9884,1.989,1.9895,0,0,0,0,0,0,1.9452,1.9491,1.9492,1.9543,1.9572,1.9608,1.9634,1.9636,1.9669,1.9667,1.9684,1.9693,1.9744,1.9763,1.9739,1.9827,1.9809,1.9815,1.9812,1.9819,1.9823,1.9818,1.973,0,0,0,0,0,1.9459,1.9493,1.9526,1.9568,1.9583,1.9606,1.9627,1.9635,1.9666,1.9679,1.9703,1.9734,1.9772,1.9796,1.9832,1.9888,1.9898,1.9913,1.9918,1.9921,1.9927,1.9961,1.9969,1.9887,1.9887,1.9887,0,0,1.9474,1.95,1.952,1.957,1.9593,1.963,1.9616,1.9655,1.9682,1.9685,1.9735,1.9754,1.979,1.9844,1.987,1.9862,1.9952,1.9926,1.9929,1.9932,1.9965,1.9973,1.998,1.989,1.9889,1.9889,0,0,1.952,1.9542,1.9581,1.9605,1.964,1.9656,1.9665,1.9701,1.9714,1.9764,1.9768,1.9801,1.9864,1.9891,1.9913,1.9971,1.9972,1.9982,2.0007,2.004,2.0047,2.0052,2.0075,2.0083,1.9987,1.9987,1.9987,0,1.9535,1.9588,1.9601,1.964,1.9663,1.9666,1.9707,1.973,1.9776,1.9793,1.9783,1.9864,1.9888,1.995,1.9964,1.9981,1.9994,1.9978,2.0044,2.005,2.0056,2.0078,2.0087,1.9988,1.9988,1.9988,1.9988,0,1.9606,1.9643,1.967,1.9714,1.974,1.978,1.98,1.9825,1.9832,1.9849,1.9901,1.9931,1.9974,1.9989,1.9995,2.0053,2.0047,2.004,2.0023,2.0065,2.0086,2.0094,1.999,1.999,1.9989,1.9989,0,0,1.9657,1.9708,1.9718,1.9739,1.9779,1.9809,1.985,1.9891,1.9914,1.9945,1.9982,2.0036,2.0031,2.0055,2.0065,2.0094,2.0141,2.0084,2.0085,2.0096,2.0209,2.0215,2.0225,2.0142,2.0144,2.0145,2.0207,0,1.9709,1.978,1.9794,1.9857,1.9893,1.9898,1.9934,1.9963,1.9981,2.0015,2.0035,2.0074,2.0063,2.0078,2.0107,2.0129,2.0165,2.0125,2.0178,2.018,2.017,2.0235,2.0241,2.0298,2.0215,2.0216,2.0217,0,1.9779,1.9812,1.9879,1.9916,1.9932,1.9964,2.0005,2.0036,2.0071,2.0082,2.011,2.0117,2.0162,2.0142,2.0206,2.0178,2.0201,2.0216,2.0218,2.0225,2.0202,2.0246,2.0316,2.0326,2.023,2.0229,2.0228,0,1.9812,1.9874,1.9923,1.994,1.9984,2.0007,2.0027,2.006,2.0085,2.012,2.0137,2.0178,2.0201,2.0233,2.0252,2.0235,2.0315,2.0295,2.0327,2.0327,2.0345,2.0344,2.0422,2.0356,2.0356,2.0356,2.0356,0,1.987,1.9911,1.9938,1.9968,2.0016,2.0031,2.0078,2.0098,2.0127,2.0163,2.0169,2.0203,2.0224,2.0262,2.0277,2.0328,2.0338,2.035,2.0354,2.035,2.0349,2.0367,2.0364,2.0358,2.0358,2.0357,2.0357,0,1.9916,1.9935,1.9989,2.0026,2.0037,2.007,2.0103,2.0134,2.0151,2.0196,2.0208,2.0236,2.0281,2.0302,2.0357,2.0367,2.0427,2.0427,2.0415,2.0417,2.0448,2.0446,2.0542,2.0557,2.0479,2.048,2.048,0,1.9952,1.9984,2.0025,2.0049,2.0069,2.0107,2.0133,2.015,2.0177,2.022,2.0246,2.029,2.0326,2.0397,2.0424,2.0467,2.047,2.05,2.0476,2.0473,2.0473,2.0472,2.0476,2.0505,2.0506,2.0507,2.0507,0,2.0015,2.0024,2.006,2.01,2.013,2.0163,2.0195,2.0214,2.0237,2.0267,2.0312,2.0341,2.0397,2.0442,2.0487,2.0509,2.0513,2.0514,2.0524,2.0522,2.0515,2.0522,2.0429,2.0512,2.0512,2.0512,2.0511,2.0511,2.0059,2.0089,2.0123,2.0163,2.0189,2.022,2.0251,2.0272,2.031,2.0357,2.0365,2.0414,2.045,2.051,2.0534,2.0574,2.0567,2.0581,2.0585,2.0589,2.0592,2.0507,2.0582,2.0582,2.0582,2.0581,2.0581,0,2.0125,2.0147,2.0184,2.0229,2.0262,2.0261,2.0297,2.0325,2.0367,2.04,2.0436,2.0489,2.0533,2.0564,2.0609,2.0635,2.0638,2.0646,2.0646,2.0651,2.0594,2.0581,2.0643,2.0643,2.0643,2.0643,2.0643,2.0643,2.0163,2.0214,2.0227,2.0291,2.0313,2.036,2.0382,2.041,2.0437,2.0496,2.0532,2.0551,2.0584,2.0632,2.0673,2.0681,2.0698,2.0707,2.0716,2.0661,2.0655,2.0649,2.0638,2.071,2.071,2.077,2.0771,2.0771]},{"header":{"parameterUnit":"m.s-1","parameterCategory":1,"la1":30.2991,"la2":30.254,"lo1":-89.0895,"lo2":-89.0444,"dy":0.0017,"dx":0.0017,"nx":28,"ny":28,"refTime":"2024-08-02T21:00:00:Z","depth":0,"parameterNumber":3,"parameterNumberName":"V-component_of_WINDS"},"data":[0,0,0,0,0,0,0,0,0,0,0,0,0,0,0,0,0,0,0,0,0,0,0,0,0,0,0,0,0,0,0,0,0,0,0,0,0,0,0,0,0,0,0,0,0,0,0,0,0,0,0,0,0,0,0,0,0,0,-0.9268,-0.9268,0,-0.9268,-0.9268,-0.9268,-0.9289,-0.929,-0.929,-0.9291,-0.9291,-0.929,-0.929,0,0,0,0,0,0,0,0,0,0,0,0,0,-0.9286,-0.9285,-0.9268,-0.9268,-0.9268,-0.9268,-0.9268,-0.9268,-0.9289,-0.929,-0.929,-0.9291,-0.9291,-0.929,-0.929,0,0,0,0,0,0,0,0,0,0,0,0,0,-0.9281,-0.9285,-0.9268,-0.9278,-0.9279,-0.9268,-0.9268,-0.9268,-0.9289,-0.929,-0.929,-0.9291,-0.9291,-0.929,-0.929,-0.9269,0,0,-0.9287,-0.9287,0,0,0,0,0,0,0,0,-0.9281,-0.928,-0.9277,-0.9277,-0.9279,-0.928,-0.9275,-0.9269,-0.9289,-0.9285,-0.9291,-0.9292,-0.9286,-0.9286,-0.9284,-0.9269,-0.9269,-0.9287,-0.9287,-0.9287,-0.9286,0,0,0,0,0,0,0,-0.9282,-0.9281,-0.9268,-0.9277,-0.9278,-0.9283,-0.9283,-0.9274,-0.9281,-0.9286,-0.9287,-0.9287,-0.9287,-0.9285,-0.9284,-0.9269,-0.9287,-0.9287,-0.9286,-0.9286,-0.9239,-0.9238,0,0,0,0,0,0,-0.928,-0.9281,-0.9268,-0.9268,-0.9282,-0.9282,-0.9282,-0.9278,-0.9281,-0.9283,-0.9286,-0.9288,-0.9286,-0.9285,-0.9285,-0.9262,-0.9287,-0.9286,-0.9285,-0.9239,-0.9238,-0.9237,0,0,0,0,0,0,-0.9281,-0.9279,-0.9268,-0.9275,-0.9274,-0.9281,-0.9276,-0.9278,-0.9276,-0.9282,-0.9283,-0.9283,-0.9287,-0.9286,-0.9273,-0.9262,-0.9285,-0.9285,-0.924,-0.9239,-0.9238,-0.9215,0,0,0,0,0,0,-0.9281,-0.9279,-0.9271,-0.9274,-0.9273,-0.9256,-0.9276,-0.9277,-0.9275,-0.9277,-0.9279,-0.928,-0.9287,-0.9274,-0.9272,-0.9261,-0.9284,-0.9241,-0.924,-0.9238,-0.9217,-0.9213,-0.921,0,0,0,0,0,-0.9282,-0.9264,-0.927,-0.9269,-0.9263,-0.9255,-0.9255,-0.9263,-0.9274,-0.9266,-0.927,-0.928,-0.9264,-0.9273,-0.9271,-0.926,-0.9242,-0.924,-0.9238,-0.9219,-0.9214,-0.921,0,0,0,0,0,0,-0.9258,-0.9265,-0.9272,-0.9255,-0.9254,-0.9259,-0.9249,-0.9258,-0.9255,-0.9257,-0.9268,-0.9268,-0.9254,-0.9255,-0.9266,-0.9241,-0.9255,-0.9252,-0.924,-0.9236,-0.9233,-0.9233,-0.9284,0,0,0,0,0,-0.9251,-0.9244,-0.925,-0.9234,-0.9234,-0.9242,-0.9239,-0.9245,-0.9245,-0.9245,-0.9248,-0.9248,-0.9243,-0.924,-0.9235,-0.9217,-0.9219,-0.9209,-0.9206,-0.9203,-0.9201,-0.9193,-0.9189,-0.9232,-0.9232,-0.9232,0,0,-0.9236,-0.9239,-0.9234,-0.923,-0.9231,-0.9224,-0.9241,-0.9233,-0.9228,-0.9244,-0.9233,-0.9235,-0.9236,-0.9221,-0.9215,-0.9222,-0.919,-0.92,-0.9198,-0.9198,-0.9191,-0.9187,-0.9183,-0.923,-0.9231,-0.9231,0,0,-0.9206,-0.9207,-0.9195,-0.9195,-0.9197,-0.9202,-0.9199,-0.9203,-0.9205,-0.9194,-0.9207,-0.9201,-0.9192,-0.9192,-0.9191,-0.9163,-0.9173,-0.9161,-0.9144,-0.9136,-0.9133,-0.913,-0.9121,-0.9118,-0.9159,-0.9159,-0.9159,0,-0.9187,-0.9177,-0.9187,-0.9179,-0.9177,-0.9192,-0.918,-0.918,-0.918,-0.9179,-0.9187,-0.9177,-0.9178,-0.9164,-0.9158,-0.9156,-0.9154,-0.9161,-0.9133,-0.913,-0.9127,-0.9119,-0.9116,-0.9158,-0.9158,-0.9158,-0.9158,0,-0.9155,-0.9148,-0.9138,-0.9138,-0.9136,-0.9125,-0.9134,-0.9131,-0.9138,-0.9143,-0.9132,-0.9135,-0.9132,-0.9129,-0.9135,-0.9117,-0.9121,-0.9131,-0.9145,-0.9122,-0.9114,-0.9111,-0.9156,-0.9156,-0.9157,-0.9157,0,0,-0.9109,-0.9116,-0.9112,-0.9114,-0.9117,-0.9112,-0.9103,-0.91,-0.9097,-0.9097,-0.909,-0.9083,-0.9092,-0.9091,-0.9098,-0.9092,-0.9071,-0.9102,-0.9102,-0.9097,-0.9052,-0.9045,-0.9042,-0.9077,-0.9077,-0.9076,-0.9052,0,-0.9081,-0.9066,-0.9076,-0.9059,-0.9054,-0.9069,-0.9061,-0.9063,-0.9067,-0.9064,-0.9069,-0.9064,-0.9076,-0.9076,-0.907,-0.9075,-0.9062,-0.9076,-0.9072,-0.9072,-0.9072,-0.9037,-0.903,-0.9007,-0.9049,-0.9049,-0.9049,0,-0.9046,-0.9045,-0.9028,-0.9034,-0.9032,-0.9025,-0.9025,-0.9021,-0.9023,-0.9027,-0.9027,-0.9036,-0.9029,-0.9043,-0.9033,-0.9043,-0.9041,-0.9044,-0.9043,-0.9044,-0.9059,-0.9038,-0.9,-0.8997,-0.9044,-0.9044,-0.9044,0,-0.9016,-0.901,-0.9,-0.9,-0.9006,-0.9001,-0.9004,-0.9007,-0.9006,-0.9005,-0.9005,-0.9003,-0.9003,-0.9002,-0.9011,-0.902,-0.9,-0.9015,-0.9004,-0.9004,-0.9,-0.9,-0.8962,-0.8998,-0.8998,-0.8998,-0.8998,0,-0.8983,-0.8973,-0.8987,-0.8981,-0.897,-0.8981,-0.897,-0.8974,-0.8977,-0.8973,-0.8985,-0.8981,-0.8993,-0.899,-0.8996,-0.8988,-0.8988,-0.8991,-0.8993,-0.8991,-0.899,-0.899,-0.8992,-0.8997,-0.8997,-0.8997,-0.8997,0,-0.8948,-0.8956,-0.8947,-0.8954,-0.8956,-0.8948,-0.8954,-0.8949,-0.8955,-0.8949,-0.8949,-0.8958,-0.8955,-0.8964,-0.8962,-0.8967,-0.8955,-0.896,-0.8955,-0.8956,-0.8946,-0.8947,-0.8907,-0.8903,-0.894,-0.894,-0.894,0,-0.8927,-0.892,-0.8927,-0.8925,-0.8927,-0.8923,-0.8922,-0.8933,-0.8932,-0.8935,-0.893,-0.8929,-0.8928,-0.8923,-0.893,-0.8929,-0.8934,-0.892,-0.8934,-0.8932,-0.8935,-0.8936,-0.8936,-0.8917,-0.8917,-0.8916,-0.8916,0,-0.889,-0.8895,-0.8893,-0.8893,-0.8892,-0.8893,-0.8894,-0.8892,-0.8904,-0.8902,-0.8899,-0.8899,-0.8898,-0.8897,-0.8898,-0.8901,-0.8911,-0.8912,-0.891,-0.8907,-0.8905,-0.8907,-0.8948,-0.8913,-0.8913,-0.8913,-0.8913,-0.8914,-0.8862,-0.8857,-0.8861,-0.8859,-0.8862,-0.8863,-0.886,-0.8866,-0.8864,-0.8864,-0.8871,-0.8868,-0.8872,-0.8874,-0.8877,-0.8875,-0.8881,-0.8877,-0.8877,-0.8876,-0.8875,-0.8905,-0.8875,-0.8875,-0.8875,-0.8875,-0.8875,0,-0.8826,-0.883,-0.8829,-0.8831,-0.883,-0.884,-0.8842,-0.884,-0.8838,-0.8841,-0.884,-0.8838,-0.8837,-0.8845,-0.8845,-0.8842,-0.8847,-0.8842,-0.8843,-0.8843,-0.8868,-0.8871,-0.8838,-0.8838,-0.8838,-0.8838,-0.8838,-0.8838,-0.8808,-0.88,-0.8806,-0.88,-0.8804,-0.8801,-0.8802,-0.8804,-0.8807,-0.8804,-0.8804,-0.8809,-0.8814,-0.8815,-0.8815,-0.8817,-0.8817,-0.8811,-0.8815,-0.8838,-0.8841,-0.8845,-0.8847,-0.8811,-0.8811,-0.8791,-0.8791,-0.8791]}]]